Time,TemperatureF,DewpointF,PressureIn,WindDirection,WindDirectionDegrees,WindSpeedMPH,WindSpeedGustMPH,Humidity,HourlyPrecipIn,Conditions,Clouds,dailyrainin,SoftwareType,DateUTC
2013-11-21 00:01:00,38.3,21.4,30.35,SW,229,1.0,8.0,50,0.00,,OVC OVC///CB,0.00,WUHU216DAVISVP2,2013-11-21 05:01:00,
2013-11-21 00:06:00,38.3,21.4,30.35,SE,136,3.0,8.0,50,0.00,,OVC OVC///CB,0.00,WUHU216DAVISVP2,2013-11-21 05:06:00,
2013-11-21 00:11:00,38.3,21.9,30.35,SE,131,1.0,7.0,51,0.00,,OVC OVC///CB,0.00,WUHU216DAVISVP2,2013-11-21 05:11:00,
2013-11-21 00:16:00,38.4,21.5,30.35,SSE,155,1.0,5.0,50,0.00,,OVC OVC///CB,0.00,WUHU216DAVISVP2,2013-11-21 05:16:00,
2013-11-21 00:21:00,38.3,21.9,30.36,SE,137,2.0,5.0,51,0.00,,OVC OVC///CB,0.00,WUHU216DAVISVP2,2013-11-21 05:21:00,
2013-11-21 00:26:00,38.3,22.4,30.35,ESE,110,1.0,5.0,52,0.00,,OVC OVC///CB,0.00,WUHU216DAVISVP2,2013-11-21 05:26:00,
2013-11-21 00:31:00,38.3,21.9,30.36,South,171,0.0,5.0,51,0.00,,OVC OVC///CB,0.00,WUHU216DAVISVP2,2013-11-21 05:31:00,
2013-11-21 00:36:00,38.4,22.5,30.36,SE,143,1.0,5.0,52,0.00,,OVC OVC///CB,0.00,WUHU216DAVISVP2,2013-11-21 05:36:00,
2013-11-21 00:41:00,38.3,21.9,30.36,SE,142,2.0,5.0,51,0.00,,OVC OVC///CB,0.00,WUHU216DAVISVP2,2013-11-21 05:41:00,
2013-11-21 00:46:00,38.4,22.0,30.36,SE,125,2.0,5.0,51,0.00,,OVC OVC///CB,0.00,WUHU216DAVISVP2,2013-11-21 05:46:00,
2013-11-21 00:51:00,38.5,22.1,30.36,ESE,119,1.0,10.0,51,0.00,,OVC OVC///CB,0.00,WUHU216DAVISVP2,2013-11-21 05:51:00,
2013-11-21 00:56:00,38.4,22.5,30.37,SE,129,2.0,10.0,52,0.00,,OVC OVC///CB,0.00,WUHU216DAVISVP2,2013-11-21 05:56:00,
2013-11-21 00:57:00,38.4,22.5,30.37,SSE,149,2.0,10.0,52,0.00,,OVC OVC///CB,0.00,WUHU216DAVISVP2,2013-11-21 05:57:00,
2013-11-21 01:02:00,38.3,22.4,30.37,SE,132,0.0,10.0,52,0.00,,OVC OVC///CB,0.00,WUHU216DAVISVP2,2013-11-21 06:02:00,
2013-11-21 01:07:00,38.1,22.2,30.37,SSE,148,4.0,10.0,52,0.00,,OVC OVC///CB,0.00,WUHU216DAVISVP2,2013-11-21 06:07:00,
2013-11-21 01:12:00,38.1,22.2,30.37,SSE,152,5.0,5.0,52,0.00,,OVC OVC///CB,0.00,WUHU216DAVISVP2,2013-11-21 06:12:00,
2013-11-21 01:17:00,38.2,21.8,30.37,SE,142,3.0,6.0,51,0.00,,OVC OVC///CB,0.00,WUHU216DAVISVP2,2013-11-21 06:17:00,
2013-11-21 01:22:00,38.2,22.3,30.37,ESE,113,0.0,6.0,52,0.00,,OVC OVC///CB,0.00,WUHU216DAVISVP2,2013-11-21 06:22:00,
2013-11-21 01:27:00,38.2,22.3,30.38,ESE,114,4.0,5.0,52,0.00,,OVC OVC///CB,0.00,WUHU216DAVISVP2,2013-11-21 06:27:00,
2013-11-21 01:32:00,38.3,22.4,30.37,East,94,5.0,6.0,52,0.00,,OVC OVC///CB,0.00,WUHU216DAVISVP2,2013-11-21 06:32:00,
2013-11-21 01:37:00,38.3,22.4,30.38,SSE,155,0.0,6.0,52,0.00,,OVC OVC///CB,0.00,WUHU216DAVISVP2,2013-11-21 06:37:00,
2013-11-21 01:42:00,38.3,22.4,30.38,SE,143,2.0,6.0,52,0.00,,OVC OVC///CB,0.00,WUHU216DAVISVP2,2013-11-21 06:42:00,
2013-11-21 01:47:00,38.3,22.4,30.38,SE,131,1.0,5.0,52,0.00,,OVC OVC///CB,0.00,WUHU216DAVISVP2,2013-11-21 06:47:00,
2013-11-21 01:52:00,38.3,22.4,30.39,SE,125,1.0,4.0,52,0.00,,OVC OVC///CB,0.00,WUHU216DAVISVP2,2013-11-21 06:52:00,
2013-11-21 01:57:00,38.3,22.4,30.39,SE,145,0.0,4.0,52,0.00,,OVC OVC///CB,0.00,WUHU216DAVISVP2,2013-11-21 06:57:00,
2013-11-21 02:02:00,38.3,22.4,30.39,SSE,162,1.0,4.0,52,0.00,,OVC OVC///CB,0.00,WUHU216DAVISVP2,2013-11-21 07:02:00,
2013-11-21 02:07:00,38.3,22.4,30.39,SE,132,0.0,4.0,52,0.00,,OVC OVC///CB,0.00,WUHU216DAVISVP2,2013-11-21 07:07:00,
2013-11-21 02:12:00,38.3,22.4,30.39,SSE,149,0.0,4.0,52,0.00,,OVC OVC///CB,0.00,WUHU216DAVISVP2,2013-11-21 07:12:00,
2013-11-21 02:17:00,38.3,22.4,30.39,East,94,3.0,4.0,52,0.00,,OVC OVC///CB,0.00,WUHU216DAVISVP2,2013-11-21 07:17:00,
2013-11-21 02:22:00,38.3,22.4,30.39,SE,134,3.0,4.0,52,0.00,,OVC OVC///CB,0.00,WUHU216DAVISVP2,2013-11-21 07:22:00,
2013-11-21 02:27:00,38.3,22.4,30.39,SSE,148,1.0,5.0,52,0.00,,OVC OVC///CB,0.00,WUHU216DAVISVP2,2013-11-21 07:27:00,
2013-11-21 02:32:00,38.2,22.7,30.38,SE,124,1.0,5.0,53,0.00,,OVC OVC///CB,0.00,WUHU216DAVISVP2,2013-11-21 07:32:00,
2013-11-21 02:37:00,38.2,22.7,30.39,ESE,118,0.0,5.0,53,0.00,,OVC OVC///CB,0.00,WUHU216DAVISVP2,2013-11-21 07:37:00,
2013-11-21 02:42:00,38.1,22.6,30.39,SE,138,0.0,5.0,53,0.00,,OVC OVC///CB,0.00,WUHU216DAVISVP2,2013-11-21 07:42:00,
2013-11-21 02:47:00,38.1,22.6,30.39,ESE,110,1.0,5.0,53,0.00,,OVC OVC///CB,0.00,WUHU216DAVISVP2,2013-11-21 07:47:00,
2013-11-21 02:52:00,38.1,22.6,30.39,ESE,122,2.0,4.0,53,0.00,,OVC OVC///CB,0.00,WUHU216DAVISVP2,2013-11-21 07:52:00,
2013-11-21 02:57:00,38.2,22.7,30.39,East,83,4.0,5.0,53,0.00,,OVC OVC///CB,0.00,WUHU216DAVISVP2,2013-11-21 07:57:00,
2013-11-21 03:02:00,38.3,22.4,30.38,SE,139,2.0,5.0,52,0.00,,OVC OVC///CB,0.00,WUHU216DAVISVP2,2013-11-21 08:02:00,
2013-11-21 03:07:00,38.3,22.4,30.39,SE,133,0.0,5.0,52,0.00,,OVC OVC///CB,0.00,WUHU216DAVISVP2,2013-11-21 08:07:00,
2013-11-21 03:12:00,38.3,22.8,30.39,SE,139,1.0,5.0,53,0.00,,OVC OVC///CB,0.00,WUHU216DAVISVP2,2013-11-21 08:12:00,
2013-11-21 03:17:00,38.3,22.4,30.38,ESE,120,2.0,5.0,52,0.00,,OVC OVC///CB,0.00,WUHU216DAVISVP2,2013-11-21 08:17:00,
2013-11-21 03:22:00,38.2,22.7,30.38,SE,141,1.0,5.0,53,0.00,,OVC OVC///CB,0.00,WUHU216DAVISVP2,2013-11-21 08:22:00,
2013-11-21 03:27:00,38.1,22.6,30.38,SSE,149,2.0,5.0,53,0.00,,OVC OVC///CB,0.00,WUHU216DAVISVP2,2013-11-21 08:27:00,
2013-11-21 03:32:00,38.1,22.6,30.38,SE,132,1.0,5.0,53,0.00,,OVC OVC///CB,0.00,WUHU216DAVISVP2,2013-11-21 08:32:00,
2013-11-21 03:37:00,38.2,23.2,30.38,SSE,148,0.0,5.0,54,0.00,,OVC OVC///CB,0.00,WUHU216DAVISVP2,2013-11-21 08:37:00,
2013-11-21 03:42:00,38.3,23.3,30.38,ESE,112,2.0,5.0,54,0.00,,OVC OVC///CB,0.00,WUHU216DAVISVP2,2013-11-21 08:42:00,
2013-11-21 03:47:00,38.3,23.3,30.38,SE,131,1.0,5.0,54,0.00,,OVC OVC///CB,0.00,WUHU216DAVISVP2,2013-11-21 08:47:00,
2013-11-21 03:52:00,38.3,23.3,30.38,SSE,163,2.0,4.0,54,0.00,,OVC OVC///CB,0.00,WUHU216DAVISVP2,2013-11-21 08:52:00,
2013-11-21 03:57:00,38.4,23.4,30.37,East,84,0.0,4.0,54,0.00,,OVC OVC///CB,0.00,WUHU216DAVISVP2,2013-11-21 08:57:00,
2013-11-21 04:02:00,38.4,23.4,30.38,SSW,203,0.0,3.0,54,0.00,,OVC OVC///CB,0.00,WUHU216DAVISVP2,2013-11-21 09:02:00,
2013-11-21 04:07:00,38.5,23.5,30.38,SE,132,0.0,4.0,54,0.00,,OVC OVC///CB,0.00,WUHU216DAVISVP2,2013-11-21 09:07:00,
2013-11-21 04:12:00,38.5,23.5,30.37,East,99,2.0,5.0,54,0.00,,OVC OVC///CB,0.00,WUHU216DAVISVP2,2013-11-21 09:12:00,
2013-11-21 04:17:00,38.5,23.5,30.36,SE,143,2.0,5.0,54,0.00,,OVC OVC///CB,0.00,WUHU216DAVISVP2,2013-11-21 09:17:00,
2013-11-21 04:22:00,38.6,23.6,30.37,SSE,153,2.0,7.0,54,0.00,,OVC OVC///CB,0.00,WUHU216DAVISVP2,2013-11-21 09:22:00,
2013-11-21 04:27:00,38.6,23.6,30.38,SE,141,2.0,7.0,54,0.00,,OVC OVC///CB,0.00,WUHU216DAVISVP2,2013-11-21 09:27:00,
2013-11-21 04:32:00,38.6,23.6,30.38,SE,141,1.0,6.0,54,0.00,,OVC OVC///CB,0.00,WUHU216DAVISVP2,2013-11-21 09:32:00,
2013-11-21 04:37:00,38.6,23.6,30.38,SE,138,2.0,6.0,54,0.00,,OVC OVC///CB,0.00,WUHU216DAVISVP2,2013-11-21 09:37:00,
2013-11-21 04:42:00,38.5,23.9,30.38,SE,132,2.0,3.0,55,0.00,,OVC OVC///CB,0.00,WUHU216DAVISVP2,2013-11-21 09:42:00,
2013-11-21 04:47:00,38.5,23.9,30.38,SE,132,1.0,4.0,55,0.00,,OVC OVC///CB,0.00,WUHU216DAVISVP2,2013-11-21 09:47:00,
2013-11-21 04:52:00,38.4,24.3,30.38,ESE,118,1.0,4.0,56,0.00,,OVC OVC///CB,0.00,WUHU216DAVISVP2,2013-11-21 09:52:00,
2013-11-21 04:57:00,38.5,24.4,30.39,SSE,159,0.0,4.0,56,0.00,,OVC OVC///CB,0.00,WUHU216DAVISVP2,2013-11-21 09:57:00,
2013-11-21 05:02:00,38.4,24.3,30.39,SE,145,0.0,4.0,56,0.00,,OVC OVC///CB,0.00,WUHU216DAVISVP2,2013-11-21 10:02:00,
2013-11-21 05:07:00,38.5,24.4,30.39,SSE,149,2.0,3.0,56,0.00,,OVC OVC///CB,0.00,WUHU216DAVISVP2,2013-11-21 10:07:00,
2013-11-21 05:12:00,38.6,24.4,30.39,SSE,157,1.0,4.0,56,0.00,,OVC OVC///CB,0.00,WUHU216DAVISVP2,2013-11-21 10:12:00,
2013-11-21 05:17:00,38.6,24.0,30.39,SE,131,1.0,4.0,55,0.00,,OVC OVC///CB,0.00,WUHU216DAVISVP2,2013-11-21 10:17:00,
2013-11-21 05:22:00,38.7,24.1,30.39,SE,131,3.0,4.0,55,0.00,,OVC OVC///CB,0.00,WUHU216DAVISVP2,2013-11-21 10:22:00,
2013-11-21 05:27:00,38.7,24.5,30.39,ESE,120,1.0,5.0,56,0.00,,OVC OVC///CB,0.00,WUHU216DAVISVP2,2013-11-21 10:27:00,
2013-11-21 05:32:00,38.7,24.5,30.38,SE,145,2.0,7.0,56,0.00,,OVC OVC///CB,0.00,WUHU216DAVISVP2,2013-11-21 10:32:00,
2013-11-21 05:37:00,38.7,24.5,30.38,SSE,153,5.0,7.0,56,0.00,,OVC OVC///CB,0.00,WUHU216DAVISVP2,2013-11-21 10:37:00,
2013-11-21 05:42:00,38.7,25.0,30.38,SE,141,1.0,7.0,57,0.00,,OVC OVC///CB,0.00,WUHU216DAVISVP2,2013-11-21 10:42:00,
2013-11-21 05:47:00,38.7,25.0,30.39,SE,134,1.0,6.0,57,0.00,,OVC OVC///CB,0.00,WUHU216DAVISVP2,2013-11-21 10:47:00,
2013-11-21 05:52:00,38.7,25.0,30.40,SSE,162,2.0,6.0,57,0.00,,OVC OVC///CB,0.00,WUHU216DAVISVP2,2013-11-21 10:52:00,
2013-11-21 05:57:00,38.7,25.0,30.40,SE,142,1.0,4.0,57,0.00,,OVC OVC///CB,0.00,WUHU216DAVISVP2,2013-11-21 10:57:00,
2013-11-21 06:02:00,38.7,25.4,30.40,South,169,1.0,4.0,58,0.00,,OVC OVC///CB,0.00,WUHU216DAVISVP2,2013-11-21 11:02:00,
2013-11-21 06:07:00,38.5,25.6,30.40,SSE,160,0.0,4.0,59,0.00,,OVC OVC///CB,0.00,WUHU216DAVISVP2,2013-11-21 11:07:00,
2013-11-21 06:12:00,38.4,25.5,30.41,SSW,201,0.0,4.0,59,0.00,,OVC OVC///CB,0.00,WUHU216DAVISVP2,2013-11-21 11:12:00,
2013-11-21 06:17:00,38.4,25.9,30.41,SSW,203,0.0,3.0,60,0.00,,OVC OVC///CB,0.00,WUHU216DAVISVP2,2013-11-21 11:17:00,
2013-11-21 06:22:00,38.4,26.3,30.41,SSE,153,1.0,4.0,61,0.00,,OVC OVC///CB,0.00,WUHU216DAVISVP2,2013-11-21 11:22:00,
2013-11-21 06:27:00,38.2,26.2,30.41,SSE,160,2.0,4.0,61,0.00,,OVC OVC///CB,0.00,WUHU216DAVISVP2,2013-11-21 11:27:00,
2013-11-21 06:32:00,38.0,26.4,30.41,SSE,153,1.0,4.0,62,0.00,,OVC OVC///CB,0.00,WUHU216DAVISVP2,2013-11-21 11:32:00,
2013-11-21 06:37:00,37.8,26.9,30.41,SE,136,1.0,4.0,64,0.00,,OVC OVC///CB,0.00,WUHU216DAVISVP2,2013-11-21 11:37:00,
2013-11-21 06:42:00,37.6,27.1,30.41,SSE,155,1.0,3.0,65,0.00,,OVC OVC///CB,0.00,WUHU216DAVISVP2,2013-11-21 11:42:00,
2013-11-21 06:47:00,37.6,27.5,30.42,SSE,161,2.0,3.0,66,0.00,,OVC OVC///CB,0.00,WUHU216DAVISVP2,2013-11-21 11:47:00,
2013-11-21 06:52:00,37.5,27.8,30.42,SE,143,1.0,3.0,67,0.00,,OVC OVC///CB,0.00,WUHU216DAVISVP2,2013-11-21 11:52:00,
2013-11-21 06:57:00,37.4,28.0,30.42,SE,143,0.0,3.0,68,0.00,,OVC OVC///CB,0.00,WUHU216DAVISVP2,2013-11-21 11:57:00,
2013-11-21 07:02:00,37.3,28.6,30.42,SE,139,0.0,2.0,70,0.00,,OVC OVC///CB,0.00,WUHU216DAVISVP2,2013-11-21 12:02:00,
2013-11-21 07:07:00,37.2,28.9,30.41,ESE,108,0.0,2.0,71,0.00,,OVC OVC///CB,0.00,WUHU216DAVISVP2,2013-11-21 12:07:00,
2013-11-21 07:12:00,37.0,29.3,30.41,SE,141,0.0,1.0,73,0.00,,OVC OVC///CB,0.00,WUHU216DAVISVP2,2013-11-21 12:12:00,
2013-11-21 07:17:00,36.8,29.5,30.41,ESE,117,0.0,1.0,74,0.00,,OVC OVC///CB,0.00,WUHU216DAVISVP2,2013-11-21 12:17:00,
2013-11-21 07:21:00,36.6,29.9,30.41,ESE,117,0.0,1.0,76,0.00,,OVC OVC///CB,0.00,WUHU216DAVISVP2,2013-11-21 12:21:00,
2013-11-21 07:26:00,36.5,30.1,30.41,ESE,122,0.0,1.0,77,0.00,,OVC OVC///CB,0.00,WUHU216DAVISVP2,2013-11-21 12:26:00,
2013-11-21 07:31:00,36.5,30.1,30.41,SE,131,1.0,2.0,77,0.01,,OVC OVC///CB,0.01,WUHU216DAVISVP2,2013-11-21 12:31:00,
2013-11-21 07:36:00,36.5,30.4,30.41,SE,134,0.0,2.0,78,0.01,,OVC OVC///CB,0.01,WUHU216DAVISVP2,2013-11-21 12:36:00,
2013-11-21 07:41:00,36.4,30.7,30.41,SE,145,0.0,2.0,79,0.01,,OVC OVC///CB,0.01,WUHU216DAVISVP2,2013-11-21 12:41:00,
2013-11-21 07:46:00,36.3,30.9,30.40,SSE,167,2.0,2.0,80,0.01,,OVC OVC///CB,0.01,WUHU216DAVISVP2,2013-11-21 12:46:00,
2013-11-21 07:51:00,36.2,31.3,30.40,SE,135,1.0,2.0,82,0.01,,OVC OVC///CB,0.01,WUHU216DAVISVP2,2013-11-21 12:51:00,
2013-11-21 07:56:00,36.1,31.3,30.40,SE,146,1.0,2.0,82,0.01,,OVC OVC///CB,0.01,WUHU216DAVISVP2,2013-11-21 12:56:00,
2013-11-21 08:01:00,35.9,31.3,30.40,SE,135,1.0,2.0,83,0.02,,OVC OVC///CB,0.02,WUHU216DAVISVP2,2013-11-21 13:01:00,
2013-11-21 08:06:00,35.9,31.9,30.40,SSE,149,1.0,2.0,85,0.02,,OVC OVC///CB,0.02,WUHU216DAVISVP2,2013-11-21 13:06:00,
2013-11-21 08:11:00,35.8,31.8,30.40,SE,131,2.0,2.0,85,0.02,,OVC OVC///CB,0.02,WUHU216DAVISVP2,2013-11-21 13:11:00,
2013-11-21 08:16:00,35.8,31.8,30.40,SSE,153,0.0,2.0,85,0.02,,OVC OVC///CB,0.03,WUHU216DAVISVP2,2013-11-21 13:16:00,
2013-11-21 08:21:00,35.7,32.0,30.40,SSE,159,0.0,2.0,86,0.03,,OVC OVC///CB,0.03,WUHU216DAVISVP2,2013-11-21 13:21:00,
2013-11-21 08:26:00,35.6,32.2,30.40,SSE,148,1.0,2.0,87,0.03,,OVC OVC///CB,0.03,WUHU216DAVISVP2,2013-11-21 13:26:00,
2013-11-21 08:31:00,35.5,32.1,30.40,SE,146,1.0,2.0,87,0.02,,OVC OVC///CB,0.03,WUHU216DAVISVP2,2013-11-21 13:31:00,
2013-11-21 08:36:00,35.6,32.2,30.39,SE,136,0.0,4.0,87,0.03,,OVC OVC///CB,0.04,WUHU216DAVISVP2,2013-11-21 13:36:00,
2013-11-21 08:41:00,35.7,32.8,30.39,SE,131,1.0,4.0,89,0.03,,OVC OVC///CB,0.04,WUHU216DAVISVP2,2013-11-21 13:41:00,
2013-11-21 08:46:00,35.7,32.8,30.39,SE,137,0.0,4.0,89,0.03,,OVC OVC///CB,0.04,WUHU216DAVISVP2,2013-11-21 13:46:00,
2013-11-21 08:51:00,35.6,32.7,30.40,SE,142,1.0,3.0,89,0.04,,OVC OVC///CB,0.05,WUHU216DAVISVP2,2013-11-21 13:51:00,
2013-11-21 08:56:00,35.5,32.6,30.40,SSE,159,2.0,3.0,89,0.04,,OVC OVC///CB,0.05,WUHU216DAVISVP2,2013-11-21 13:56:00,
2013-11-21 09:01:00,35.5,32.9,30.39,ESE,121,0.0,3.0,90,0.03,,OVC OVC///CB,0.05,WUHU216DAVISVP2,2013-11-21 14:01:00,
2013-11-21 09:06:00,35.5,33.2,30.39,ESE,115,0.0,3.0,91,0.04,,OVC OVC///CB,0.06,WUHU216DAVISVP2,2013-11-21 14:06:00,
2013-11-21 09:11:00,35.5,33.2,30.39,SE,134,1.0,3.0,91,0.04,,OVC OVC///CB,0.06,WUHU216DAVISVP2,2013-11-21 14:11:00,
2013-11-21 09:16:00,35.5,33.2,30.39,SSE,148,1.0,3.0,91,0.03,,OVC OVC///CB,0.06,WUHU216DAVISVP2,2013-11-21 14:16:00,
2013-11-21 09:21:00,35.7,33.7,30.39,SE,134,0.0,3.0,92,0.03,,OVC OVC///CB,0.06,WUHU216DAVISVP2,2013-11-21 14:21:00,
2013-11-21 09:26:00,35.7,33.7,30.38,SSE,148,3.0,3.0,92,0.03,,OVC OVC///CB,0.06,WUHU216DAVISVP2,2013-11-21 14:26:00,
2013-11-21 09:31:00,35.8,33.5,30.38,SE,132,2.0,5.0,91,0.03,,OVC OVC///CB,0.06,WUHU216DAVISVP2,2013-11-21 14:31:00,
2013-11-21 09:36:00,35.9,33.6,30.38,SSE,159,2.0,5.0,91,0.02,,OVC OVC///CB,0.06,WUHU216DAVISVP2,2013-11-21 14:36:00,
2013-11-21 09:41:00,35.9,33.6,30.38,SSE,153,2.0,5.0,91,0.02,,OVC OVC///CB,0.06,WUHU216DAVISVP2,2013-11-21 14:41:00,
2013-11-21 09:46:00,36.0,33.7,30.38,SSE,165,2.0,4.0,91,0.03,,OVC OVC///CB,0.07,WUHU216DAVISVP2,2013-11-21 14:46:00,
2013-11-21 09:51:00,36.1,33.8,30.38,SE,133,0.0,4.0,91,0.02,,OVC OVC///CB,0.07,WUHU216DAVISVP2,2013-11-21 14:51:00,
2013-11-21 09:56:00,36.2,33.9,30.39,South,191,1.0,6.0,91,0.02,,OVC OVC///CB,0.07,WUHU216DAVISVP2,2013-11-21 14:56:00,
2013-11-21 10:01:00,36.3,34.0,30.39,SSE,167,0.0,6.0,91,0.02,,OVC OVC///CB,0.07,WUHU216DAVISVP2,2013-11-21 15:01:00,
2013-11-21 10:06:00,36.4,34.1,30.39,SSE,149,1.0,6.0,91,0.01,,OVC OVC///CB,0.07,WUHU216DAVISVP2,2013-11-21 15:06:00,
2013-11-21 10:11:00,36.6,34.3,30.39,South,190,0.0,6.0,91,0.01,,OVC OVC///CB,0.07,WUHU216DAVISVP2,2013-11-21 15:11:00,
2013-11-21 10:16:00,36.8,34.5,30.39,South,187,0.0,6.0,91,0.01,,OVC OVC///CB,0.07,WUHU216DAVISVP2,2013-11-21 15:16:00,
2013-11-21 10:21:00,37.0,34.7,30.39,SE,135,1.0,6.0,91,0.02,,OVC OVC///CB,0.08,WUHU216DAVISVP2,2013-11-21 15:21:00,
2013-11-21 10:26:00,37.0,34.7,30.39,SSW,208,5.0,6.0,91,0.02,,OVC OVC///CB,0.08,WUHU216DAVISVP2,2013-11-21 15:26:00,
2013-11-21 10:31:00,37.1,34.8,30.40,SSW,200,5.0,6.0,91,0.02,,OVC OVC///CB,0.08,WUHU216DAVISVP2,2013-11-21 15:31:00,
2013-11-21 10:36:00,37.1,34.5,30.40,SSE,163,2.0,6.0,90,0.02,,OVC OVC///CB,0.08,WUHU216DAVISVP2,2013-11-21 15:36:00,
2013-11-21 10:41:00,37.0,34.4,30.40,South,173,3.0,8.0,90,0.02,,OVC OVC///CB,0.08,WUHU216DAVISVP2,2013-11-21 15:41:00,
2013-11-21 10:46:00,37.1,34.8,30.40,SSE,165,2.0,8.0,91,0.01,,OVC OVC///CB,0.08,WUHU216DAVISVP2,2013-11-21 15:46:00,
2013-11-21 10:51:00,37.3,35.0,30.40,South,183,2.0,8.0,91,0.01,,OVC OVC///CB,0.08,WUHU216DAVISVP2,2013-11-21 15:51:00,
2013-11-21 10:56:00,37.6,35.3,30.40,SSW,208,3.0,8.0,91,0.01,,OVC OVC///CB,0.08,WUHU216DAVISVP2,2013-11-21 15:56:00,
2013-11-21 11:01:00,37.9,35.8,30.40,SSE,159,0.0,6.0,92,0.01,,OVC OVC///CB,0.08,WUHU216DAVISVP2,2013-11-21 16:01:00,
2013-11-21 11:06:00,38.2,35.9,30.40,SSE,166,0.0,6.0,91,0.01,,OVC OVC///CB,0.08,WUHU216DAVISVP2,2013-11-21 16:06:00,
2013-11-21 11:11:00,38.4,36.1,30.39,SSW,201,2.0,6.0,91,0.01,,OVC OVC///CB,0.08,WUHU216DAVISVP2,2013-11-21 16:11:00,
2013-11-21 11:16:00,38.5,35.9,30.40,WSW,241,4.0,7.0,90,0.01,,OVC OVC///CB,0.08,WUHU216DAVISVP2,2013-11-21 16:16:00,
2013-11-21 11:21:00,38.4,35.8,30.40,SW,236,1.0,8.0,90,0.00,,OVC OVC///CB,0.08,WUHU216DAVISVP2,2013-11-21 16:21:00,
2013-11-21 11:26:00,38.5,35.9,30.39,SSE,148,1.0,8.0,90,0.00,,OVC OVC///CB,0.08,WUHU216DAVISVP2,2013-11-21 16:26:00,
2013-11-21 11:31:00,38.6,36.0,30.39,SSW,205,2.0,8.0,90,0.00,,OVC OVC///CB,0.08,WUHU216DAVISVP2,2013-11-21 16:31:00,
2013-11-21 11:36:00,38.7,35.8,30.39,SSW,208,2.0,7.0,89,0.00,,OVC OVC///CB,0.08,WUHU216DAVISVP2,2013-11-21 16:36:00,
2013-11-21 11:41:00,38.9,36.3,30.38,SSE,149,1.0,5.0,90,0.00,,OVC OVC///CB,0.08,WUHU216DAVISVP2,2013-11-21 16:41:00,
2013-11-21 11:46:00,39.1,36.2,30.38,SSW,198,0.0,5.0,89,0.00,,OVC OVC///CB,0.08,WUHU216DAVISVP2,2013-11-21 16:46:00,
2013-11-21 11:51:00,39.4,36.8,30.38,SSW,211,0.0,3.0,90,0.00,,OVC OVC///CB,0.08,WUHU216DAVISVP2,2013-11-21 16:51:00,
2013-11-21 11:56:00,39.5,36.6,30.37,SSE,147,1.0,4.0,89,0.00,,OVC OVC///CB,0.08,WUHU216DAVISVP2,2013-11-21 16:56:00,
2013-11-21 12:01:00,39.7,36.8,30.37,SSE,158,2.0,4.0,89,0.00,,OVC OVC///CB,0.08,WUHU216DAVISVP2,2013-11-21 17:01:00,
2013-11-21 12:06:00,39.8,36.9,30.36,South,169,1.0,4.0,89,0.01,,OVC OVC///CB,0.09,WUHU216DAVISVP2,2013-11-21 17:06:00,
2013-11-21 12:11:00,39.9,37.0,30.36,SE,145,1.0,4.0,89,0.01,,OVC OVC///CB,0.09,WUHU216DAVISVP2,2013-11-21 17:11:00,
2013-11-21 12:16:00,40.0,37.1,30.36,SSE,159,2.0,4.0,89,0.01,,OVC OVC///CB,0.09,WUHU216DAVISVP2,2013-11-21 17:16:00,
2013-11-21 12:21:00,40.0,36.8,30.37,SSW,210,2.0,6.0,88,0.01,,OVC OVC///CB,0.09,WUHU216DAVISVP2,2013-11-21 17:21:00,
2013-11-21 12:26:00,40.1,36.9,30.36,South,174,1.0,6.0,88,0.01,,OVC OVC///CB,0.09,WUHU216DAVISVP2,2013-11-21 17:26:00,
2013-11-21 12:31:00,40.3,37.4,30.36,SE,142,1.0,6.0,89,0.01,,OVC OVC///CB,0.09,WUHU216DAVISVP2,2013-11-21 17:31:00,
2013-11-21 12:36:00,40.6,37.7,30.36,SSW,210,0.0,5.0,89,0.01,,OVC OVC///CB,0.09,WUHU216DAVISVP2,2013-11-21 17:36:00,
2013-11-21 12:41:00,40.8,37.6,30.35,SSE,158,0.0,3.0,88,0.01,,OVC OVC///CB,0.09,WUHU216DAVISVP2,2013-11-21 17:41:00,
2013-11-21 12:46:00,41.0,37.5,30.35,SSW,195,0.0,3.0,87,0.01,,OVC OVC///CB,0.09,WUHU216DAVISVP2,2013-11-21 17:46:00,
2013-11-21 12:51:00,41.1,37.6,30.35,South,173,1.0,3.0,87,0.01,,OVC OVC///CB,0.09,WUHU216DAVISVP2,2013-11-21 17:51:00,
2013-11-21 12:56:00,41.3,37.8,30.35,South,191,0.0,3.0,87,0.01,,OVC OVC///CB,0.09,WUHU216DAVISVP2,2013-11-21 17:56:00,
2013-11-21 13:01:00,41.5,38.0,30.35,SSW,204,2.0,3.0,87,0.01,,OVC OVC///CB,0.09,WUHU216DAVISVP2,2013-11-21 18:01:00,
2013-11-21 13:06:00,41.7,38.5,30.34,South,191,2.0,5.0,88,0.00,,OVC OVC///CB,0.09,WUHU216DAVISVP2,2013-11-21 18:06:00,
2013-11-21 13:11:00,41.8,38.3,30.34,SSE,157,1.0,5.0,87,0.00,,OVC OVC///CB,0.09,WUHU216DAVISVP2,2013-11-21 18:11:00,
2013-11-21 13:16:00,41.8,38.0,30.34,SE,135,0.0,5.0,86,0.00,,OVC OVC///CB,0.09,WUHU216DAVISVP2,2013-11-21 18:16:00,
2013-11-21 13:21:00,41.8,38.3,30.34,SW,215,0.0,5.0,87,0.00,,OVC OVC///CB,0.09,WUHU216DAVISVP2,2013-11-21 18:21:00,
2013-11-21 13:26:00,41.9,38.4,30.34,ESE,108,0.0,3.0,87,0.00,,OVC OVC///CB,0.09,WUHU216DAVISVP2,2013-11-21 18:26:00,
2013-11-21 13:31:00,42.0,38.5,30.34,ESE,123,0.0,3.0,87,0.00,,OVC OVC///CB,0.09,WUHU216DAVISVP2,2013-11-21 18:31:00,
2013-11-21 13:36:00,42.1,38.6,30.34,SSE,155,0.0,2.0,87,0.00,,OVC OVC///CB,0.09,WUHU216DAVISVP2,2013-11-21 18:36:00,
2013-11-21 13:41:00,42.2,38.7,30.33,SE,131,1.0,2.0,87,0.00,,OVC OVC///CB,0.09,WUHU216DAVISVP2,2013-11-21 18:41:00,
2013-11-21 13:46:00,42.2,38.7,30.33,ESE,103,1.0,2.0,87,0.00,,OVC OVC///CB,0.09,WUHU216DAVISVP2,2013-11-21 18:46:00,
2013-11-21 13:51:00,42.2,38.7,30.33,ESE,107,1.0,2.0,87,0.00,,OVC OVC///CB,0.09,WUHU216DAVISVP2,2013-11-21 18:51:00,
2013-11-21 13:56:00,42.4,38.9,30.32,ESE,122,2.0,3.0,87,0.00,,OVC OVC///CB,0.09,WUHU216DAVISVP2,2013-11-21 18:56:00,
2013-11-21 14:01:00,42.5,39.0,30.32,ESE,110,1.0,5.0,87,0.00,,OVC OVC///CB,0.09,WUHU216DAVISVP2,2013-11-21 19:01:00,
2013-11-21 14:06:00,42.7,39.2,30.32,East,98,0.0,5.0,87,0.00,,OVC OVC///CB,0.09,WUHU216DAVISVP2,2013-11-21 19:06:00,
2013-11-21 14:11:00,42.7,39.5,30.32,ENE,71,2.0,5.0,88,0.00,,OVC OVC///CB,0.09,WUHU216DAVISVP2,2013-11-21 19:11:00,
2013-11-21 14:16:00,42.7,39.5,30.32,ESE,116,2.0,5.0,88,0.00,,OVC OVC///CB,0.09,WUHU216DAVISVP2,2013-11-21 19:16:00,
2013-11-21 14:21:00,42.8,39.6,30.31,ENE,77,2.0,4.0,88,0.00,,OVC OVC///CB,0.09,WUHU216DAVISVP2,2013-11-21 19:21:00,
2013-11-21 14:26:00,43.0,39.8,30.31,ESE,115,1.0,4.0,88,0.00,,OVC OVC///CB,0.09,WUHU216DAVISVP2,2013-11-21 19:26:00,
2013-11-21 14:31:00,43.4,40.2,30.31,NE,36,2.0,3.0,88,0.00,,OVC OVC///CB,0.09,WUHU216DAVISVP2,2013-11-21 19:31:00,
2013-11-21 14:36:00,43.7,40.5,30.31,East,84,1.0,3.0,88,0.00,,OVC OVC///CB,0.09,WUHU216DAVISVP2,2013-11-21 19:36:00,
2013-11-21 14:41:00,43.8,40.6,30.31,East,87,3.0,4.0,88,0.00,,OVC OVC///CB,0.09,WUHU216DAVISVP2,2013-11-21 19:41:00,
2013-11-21 14:46:00,44.0,40.8,30.31,ESE,102,2.0,4.0,88,0.00,,OVC OVC///CB,0.09,WUHU216DAVISVP2,2013-11-21 19:46:00,
2013-11-21 14:51:00,44.2,41.0,30.30,ESE,110,3.0,4.0,88,0.00,,OVC OVC///CB,0.09,WUHU216DAVISVP2,2013-11-21 19:51:00,
2013-11-21 14:56:00,44.5,41.3,30.30,ENE,58,4.0,5.0,88,0.00,,OVC OVC///CB,0.09,WUHU216DAVISVP2,2013-11-21 19:56:00,
2013-11-21 15:01:00,44.4,40.9,30.30,East,94,3.0,5.0,87,0.00,,OVC OVC///CB,0.09,WUHU216DAVISVP2,2013-11-21 20:01:00,
2013-11-21 15:06:00,44.4,40.9,30.30,NE,56,0.0,5.0,87,0.00,,OVC OVC///CB,0.09,WUHU216DAVISVP2,2013-11-21 20:06:00,
2013-11-21 15:11:00,44.4,40.9,30.29,ESE,109,2.0,5.0,87,0.00,,OVC OVC///CB,0.09,WUHU216DAVISVP2,2013-11-21 20:11:00,
2013-11-21 15:16:00,44.5,41.0,30.30,ENE,65,2.0,6.0,87,0.00,,OVC OVC///CB,0.09,WUHU216DAVISVP2,2013-11-21 20:16:00,
2013-11-21 15:21:00,44.6,41.1,30.30,ENE,60,2.0,6.0,87,0.00,,OVC OVC///CB,0.09,WUHU216DAVISVP2,2013-11-21 20:21:00,
2013-11-21 15:26:00,44.7,41.2,30.29,ENE,77,2.0,5.0,87,0.00,,OVC OVC///CB,0.09,WUHU216DAVISVP2,2013-11-21 20:26:00,
2013-11-21 15:31:00,44.7,41.2,30.30,ENE,65,2.0,5.0,87,0.00,,OVC OVC///CB,0.09,WUHU216DAVISVP2,2013-11-21 20:31:00,
2013-11-21 15:36:00,44.8,41.3,30.30,East,81,0.0,4.0,87,0.00,,OVC OVC///CB,0.09,WUHU216DAVISVP2,2013-11-21 20:36:00,
2013-11-21 15:41:00,44.8,41.3,30.29,East,100,4.0,5.0,87,0.00,,OVC OVC///CB,0.09,WUHU216DAVISVP2,2013-11-21 20:41:00,
2013-11-21 15:46:00,44.9,41.4,30.29,ENE,74,2.0,5.0,87,0.00,,OVC OVC///CB,0.09,WUHU216DAVISVP2,2013-11-21 20:46:00,
2013-11-21 15:51:00,44.9,41.4,30.29,ENE,77,2.0,5.0,87,0.00,,OVC OVC///CB,0.09,WUHU216DAVISVP2,2013-11-21 20:51:00,
2013-11-21 15:56:00,44.8,41.3,30.29,ESE,103,3.0,5.0,87,0.00,,OVC OVC///CB,0.09,WUHU216DAVISVP2,2013-11-21 20:56:00,
2013-11-21 16:01:00,44.8,41.5,30.29,East,90,1.0,5.0,88,0.00,,OVC OVC///CB,0.09,WUHU216DAVISVP2,2013-11-21 21:01:00,
2013-11-21 16:06:00,44.9,41.6,30.30,East,84,0.0,4.0,88,0.00,,OVC OVC///CB,0.09,WUHU216DAVISVP2,2013-11-21 21:06:00,
2013-11-21 16:11:00,44.9,41.6,30.30,East,84,0.0,4.0,88,0.00,,OVC OVC///CB,0.09,WUHU216DAVISVP2,2013-11-21 21:11:00,
2013-11-21 16:16:00,44.9,41.6,30.30,East,89,2.0,4.0,88,0.00,,OVC OVC///CB,0.09,WUHU216DAVISVP2,2013-11-21 21:16:00,
2013-11-21 16:21:00,45.0,41.7,30.30,East,101,2.0,3.0,88,0.00,,OVC OVC///CB,0.09,WUHU216DAVISVP2,2013-11-21 21:21:00,
2013-11-21 16:26:00,45.0,41.7,30.29,ESE,110,2.0,3.0,88,0.00,,OVC OVC///CB,0.09,WUHU216DAVISVP2,2013-11-21 21:26:00,
2013-11-21 16:31:00,44.9,41.6,30.28,ENE,70,3.0,5.0,88,0.00,,OVC OVC///CB,0.09,WUHU216DAVISVP2,2013-11-21 21:31:00,
2013-11-21 16:36:00,44.9,41.6,30.28,ESE,103,0.0,5.0,88,0.00,,OVC OVC///CB,0.09,WUHU216DAVISVP2,2013-11-21 21:36:00,
2013-11-21 16:41:00,44.8,41.8,30.28,ESE,109,0.0,4.0,89,0.00,,OVC OVC///CB,0.09,WUHU216DAVISVP2,2013-11-21 21:41:00,
2013-11-21 16:46:00,44.8,41.8,30.29,SE,127,2.0,4.0,89,0.00,,OVC OVC///CB,0.09,WUHU216DAVISVP2,2013-11-21 21:46:00,
2013-11-21 16:51:00,44.8,41.8,30.29,ESE,119,1.0,4.0,89,0.00,,OVC OVC///CB,0.09,WUHU216DAVISVP2,2013-11-21 21:51:00,
2013-11-21 16:56:00,44.8,41.8,30.29,ESE,122,0.0,4.0,89,0.00,,OVC OVC///CB,0.09,WUHU216DAVISVP2,2013-11-21 21:56:00,
2013-11-21 17:01:00,44.8,41.8,30.29,ESE,111,2.0,4.0,89,0.00,,OVC OVC///CB,0.09,WUHU216DAVISVP2,2013-11-21 22:01:00,
2013-11-21 17:06:00,44.8,41.8,30.29,East,94,4.0,4.0,89,0.00,,OVC OVC///CB,0.09,WUHU216DAVISVP2,2013-11-21 22:06:00,
2013-11-21 17:11:00,44.8,41.8,30.29,East,87,2.0,4.0,89,0.00,,OVC OVC///CB,0.09,WUHU216DAVISVP2,2013-11-21 22:11:00,
2013-11-21 17:16:00,44.8,41.8,30.29,East,84,2.0,4.0,89,0.00,,OVC OVC///CB,0.09,WUHU216DAVISVP2,2013-11-21 22:16:00,
2013-11-21 17:21:00,44.8,41.8,30.29,East,94,2.0,5.0,89,0.00,,OVC OVC///CB,0.09,WUHU216DAVISVP2,2013-11-21 22:21:00,
2013-11-21 17:26:00,44.8,41.8,30.29,ENE,76,1.0,5.0,89,0.00,,OVC OVC///CB,0.09,WUHU216DAVISVP2,2013-11-21 22:26:00,
2013-11-21 17:31:00,44.8,41.8,30.29,East,84,2.0,4.0,89,0.00,,OVC OVC///CB,0.09,WUHU216DAVISVP2,2013-11-21 22:31:00,
2013-11-21 17:36:00,44.8,41.8,30.29,ESE,105,0.0,4.0,89,0.00,,OVC OVC///CB,0.09,WUHU216DAVISVP2,2013-11-21 22:36:00,
2013-11-21 17:41:00,44.8,41.8,30.29,ESE,115,0.0,3.0,89,0.00,,OVC OVC///CB,0.09,WUHU216DAVISVP2,2013-11-21 22:41:00,
2013-11-21 17:46:00,44.9,41.9,30.29,ENE,78,2.0,3.0,89,0.00,,OVC OVC///CB,0.09,WUHU216DAVISVP2,2013-11-21 22:46:00,
2013-11-21 17:51:00,44.8,41.8,30.29,ENE,68,1.0,3.0,89,0.00,,OVC OVC///CB,0.09,WUHU216DAVISVP2,2013-11-21 22:51:00,
2013-11-21 17:56:00,44.8,41.8,30.28,ENE,65,0.0,3.0,89,0.00,,OVC OVC///CB,0.09,WUHU216DAVISVP2,2013-11-21 22:56:00,
2013-11-21 18:01:00,44.7,42.0,30.28,ENE,65,0.0,2.0,90,0.00,,OVC OVC///CB,0.09,WUHU216DAVISVP2,2013-11-21 23:01:00,
2013-11-21 18:06:00,44.6,41.9,30.29,ENE,65,0.0,2.0,90,0.00,,OVC OVC///CB,0.09,WUHU216DAVISVP2,2013-11-21 23:06:00,
2013-11-21 18:11:00,44.6,41.9,30.29,ENE,65,0.0,2.0,90,0.00,,OVC OVC///CB,0.09,WUHU216DAVISVP2,2013-11-21 23:11:00,
2013-11-21 18:16:00,44.6,41.9,30.30,ENE,65,0.0,1.0,90,0.00,,OVC OVC///CB,0.09,WUHU216DAVISVP2,2013-11-21 23:16:00,
2013-11-21 18:21:00,44.7,42.0,30.30,ENE,65,0.0,1.0,90,0.00,,OVC OVC///CB,0.09,WUHU216DAVISVP2,2013-11-21 23:21:00,
2013-11-21 18:26:00,44.7,42.0,30.30,ENE,65,0.0,0.0,90,0.00,,OVC OVC///CB,0.09,WUHU216DAVISVP2,2013-11-21 23:26:00,
2013-11-21 18:31:00,44.8,42.1,30.29,ENE,60,1.0,1.0,90,0.00,,OVC OVC///CB,0.09,WUHU216DAVISVP2,2013-11-21 23:31:00,
2013-11-21 18:36:00,44.8,42.1,30.29,ENE,62,0.0,1.0,90,0.00,,OVC OVC///CB,0.09,WUHU216DAVISVP2,2013-11-21 23:36:00,
2013-11-21 18:41:00,44.8,42.1,30.29,ENE,61,0.0,2.0,90,0.00,,OVC OVC///CB,0.09,WUHU216DAVISVP2,2013-11-21 23:41:00,
2013-11-21 18:46:00,44.8,42.1,30.30,ENE,60,0.0,2.0,90,0.00,,OVC OVC///CB,0.09,WUHU216DAVISVP2,2013-11-21 23:46:00,
2013-11-21 18:51:00,44.8,42.1,30.29,ENE,60,0.0,1.0,90,0.00,,OVC OVC///CB,0.09,WUHU216DAVISVP2,2013-11-21 23:51:00,
2013-11-21 18:57:00,44.8,42.1,30.30,ENE,62,0.0,1.0,90,0.00,,OVC OVC///CB,0.09,WUHU216DAVISVP2,2013-11-21 23:57:00,
2013-11-21 19:02:00,44.9,42.2,30.29,ENE,63,0.0,1.0,90,0.00,,OVC OVC///CB,0.09,WUHU216DAVISVP2,2013-11-22 00:02:00,
2013-11-21 19:07:00,45.0,42.3,30.30,ENE,63,0.0,1.0,90,0.00,,OVC OVC///CB,0.09,WUHU216DAVISVP2,2013-11-22 00:07:00,
2013-11-21 19:12:00,45.1,42.4,30.29,East,92,0.0,1.0,90,0.00,,OVC OVC///CB,0.09,WUHU216DAVISVP2,2013-11-22 00:12:00,
2013-11-21 19:17:00,45.2,42.5,30.28,East,84,1.0,2.0,90,0.00,,OVC OVC///CB,0.09,WUHU216DAVISVP2,2013-11-22 00:17:00,
2013-11-21 19:22:00,45.3,42.6,30.28,ESE,113,1.0,3.0,90,0.00,,OVC OVC///CB,0.09,WUHU216DAVISVP2,2013-11-22 00:22:00,
2013-11-21 19:27:00,45.5,42.8,30.28,ESE,113,0.0,3.0,90,0.00,,OVC OVC///CB,0.09,WUHU216DAVISVP2,2013-11-22 00:27:00,
2013-11-21 19:32:00,45.5,42.8,30.28,ESE,113,0.0,2.0,90,0.00,,OVC OVC///CB,0.09,WUHU216DAVISVP2,2013-11-22 00:32:00,
2013-11-21 19:37:00,45.5,42.8,30.28,ESE,113,0.0,2.0,90,0.00,,OVC OVC///CB,0.09,WUHU216DAVISVP2,2013-11-22 00:37:00,
2013-11-21 19:42:00,45.5,42.8,30.29,ESE,113,0.0,1.0,90,0.00,,OVC OVC///CB,0.09,WUHU216DAVISVP2,2013-11-22 00:42:00,
2013-11-21 19:47:00,45.5,42.8,30.29,ESE,113,0.0,0.0,90,0.00,,OVC OVC///CB,0.09,WUHU216DAVISVP2,2013-11-22 00:47:00,
2013-11-21 19:52:00,45.5,42.8,30.28,ESE,113,0.0,1.0,90,0.00,,OVC OVC///CB,0.09,WUHU216DAVISVP2,2013-11-22 00:52:00,
2013-11-21 19:57:00,45.4,42.7,30.28,ESE,113,0.0,1.0,90,0.00,,OVC OVC///CB,0.09,WUHU216DAVISVP2,2013-11-22 00:57:00,
2013-11-21 20:02:00,45.3,42.6,30.28,ESE,113,0.0,1.0,90,0.00,,OVC OVC///CB,0.09,WUHU216DAVISVP2,2013-11-22 01:02:00,
2013-11-21 20:07:00,45.3,42.6,30.28,ESE,113,0.0,1.0,90,0.00,,OVC OVC///CB,0.09,WUHU216DAVISVP2,2013-11-22 01:07:00,
2013-11-21 20:12:00,45.3,42.6,30.27,ESE,112,1.0,1.0,90,0.00,,OVC OVC///CB,0.09,WUHU216DAVISVP2,2013-11-22 01:12:00,
2013-11-21 20:17:00,45.3,42.9,30.26,ESE,103,0.0,1.0,91,0.00,,OVC OVC///CB,0.09,WUHU216DAVISVP2,2013-11-22 01:17:00,
2013-11-21 20:22:00,45.3,42.9,30.27,ESE,103,0.0,1.0,91,0.00,,OVC OVC///CB,0.09,WUHU216DAVISVP2,2013-11-22 01:22:00,
2013-11-21 20:27:00,45.3,42.9,30.26,ESE,103,0.0,1.0,91,0.00,,OVC OVC///CB,0.09,WUHU216DAVISVP2,2013-11-22 01:27:00,
2013-11-21 20:32:00,45.3,42.9,30.26,ESE,103,0.0,1.0,91,0.00,,OVC OVC///CB,0.09,WUHU216DAVISVP2,2013-11-22 01:32:00,
2013-11-21 20:37:00,45.3,42.9,30.26,ESE,103,0.0,1.0,91,0.00,,OVC OVC///CB,0.09,WUHU216DAVISVP2,2013-11-22 01:37:00,
2013-11-21 20:42:00,45.3,42.9,30.27,ESE,103,0.0,1.0,91,0.00,,OVC OVC///CB,0.09,WUHU216DAVISVP2,2013-11-22 01:42:00,
2013-11-21 20:47:00,45.3,42.9,30.27,ESE,103,0.0,1.0,91,0.00,,OVC OVC///CB,0.09,WUHU216DAVISVP2,2013-11-22 01:47:00,
2013-11-21 20:52:00,45.4,42.7,30.27,ESE,103,0.0,0.0,90,0.00,,OVC OVC///CB,0.09,WUHU216DAVISVP2,2013-11-22 01:52:00,
2013-11-21 20:57:00,45.4,42.7,30.27,ESE,103,0.0,0.0,90,0.00,,OVC OVC///CB,0.09,WUHU216DAVISVP2,2013-11-22 01:57:00,
2013-11-21 21:03:00,45.5,43.1,30.27,ESE,103,0.0,0.0,91,0.00,,OVC OVC///CB,0.09,WUHU216DAVISVP2,2013-11-22 02:03:00,
2013-11-21 21:08:00,45.5,43.1,30.27,ESE,103,0.0,0.0,91,0.00,,OVC OVC///CB,0.09,WUHU216DAVISVP2,2013-11-22 02:08:00,
2013-11-21 21:13:00,45.4,43.3,30.26,ESE,103,0.0,0.0,92,0.00,,OVC OVC///CB,0.09,WUHU216DAVISVP2,2013-11-22 02:13:00,
2013-11-21 21:18:00,45.4,43.3,30.26,ESE,103,0.0,0.0,92,0.00,,OVC OVC///CB,0.09,WUHU216DAVISVP2,2013-11-22 02:18:00,
2013-11-21 21:23:00,45.4,43.0,30.26,ESE,103,0.0,0.0,91,0.00,,OVC OVC///CB,0.09,WUHU216DAVISVP2,2013-11-22 02:23:00,
2013-11-21 21:28:00,45.3,42.9,30.26,ESE,103,0.0,0.0,91,0.00,,OVC OVC///CB,0.09,WUHU216DAVISVP2,2013-11-22 02:28:00,
2013-11-21 21:33:00,45.3,43.2,30.26,ESE,103,0.0,0.0,92,0.00,,OVC OVC///CB,0.09,WUHU216DAVISVP2,2013-11-22 02:33:00,
2013-11-21 21:38:00,45.5,43.4,30.26,ESE,103,0.0,0.0,92,0.00,,OVC OVC///CB,0.09,WUHU216DAVISVP2,2013-11-22 02:38:00,
2013-11-21 21:43:00,45.5,43.7,30.26,ESE,103,0.0,0.0,93,0.00,,OVC OVC///CB,0.09,WUHU216DAVISVP2,2013-11-22 02:43:00,
2013-11-21 21:48:00,45.5,43.7,30.26,ESE,103,0.0,0.0,93,0.00,,OVC OVC///CB,0.09,WUHU216DAVISVP2,2013-11-22 02:48:00,
2013-11-21 21:53:00,45.6,43.8,30.26,ESE,103,0.0,0.0,93,0.00,,OVC OVC///CB,0.09,WUHU216DAVISVP2,2013-11-22 02:53:00,
2013-11-21 21:58:00,45.7,43.6,30.26,ESE,103,0.0,0.0,92,0.00,,OVC OVC///CB,0.09,WUHU216DAVISVP2,2013-11-22 02:58:00,
2013-11-21 22:03:00,45.8,43.7,30.25,ESE,103,0.0,0.0,92,0.00,,OVC OVC///CB,0.09,WUHU216DAVISVP2,2013-11-22 03:03:00,
2013-11-21 22:08:00,45.7,43.6,30.26,ESE,103,0.0,0.0,92,0.00,,OVC OVC///CB,0.09,WUHU216DAVISVP2,2013-11-22 03:08:00,
2013-11-21 22:13:00,45.7,43.6,30.26,ESE,103,0.0,0.0,92,0.00,,OVC OVC///CB,0.09,WUHU216DAVISVP2,2013-11-22 03:13:00,
2013-11-21 22:18:00,45.7,43.6,30.25,ESE,103,0.0,0.0,92,0.00,,OVC OVC///CB,0.09,WUHU216DAVISVP2,2013-11-22 03:18:00,
2013-11-21 22:23:00,45.6,43.5,30.25,ESE,103,0.0,0.0,92,0.00,,OVC OVC///CB,0.09,WUHU216DAVISVP2,2013-11-22 03:23:00,
2013-11-21 22:28:00,45.5,43.7,30.24,ESE,104,0.0,1.0,93,0.00,,OVC OVC///CB,0.09,WUHU216DAVISVP2,2013-11-22 03:28:00,
2013-11-21 22:33:00,45.9,43.2,30.24,SE,142,0.0,1.0,90,0.00,,OVC OVC///CB,0.09,WUHU216DAVISVP2,2013-11-22 03:33:00,
2013-11-21 22:38:00,46.6,43.0,30.24,SSE,154,0.0,1.0,87,0.00,,OVC OVC///CB,0.09,WUHU216DAVISVP2,2013-11-22 03:38:00,
2013-11-21 22:43:00,47.2,43.0,30.24,SW,214,0.0,1.0,85,0.00,,OVC OVC///CB,0.09,WUHU216DAVISVP2,2013-11-22 03:43:00,
2013-11-21 22:48:00,47.7,42.9,30.24,SSW,203,1.0,1.0,83,0.00,,OVC OVC///CB,0.09,WUHU216DAVISVP2,2013-11-22 03:48:00,
2013-11-21 22:53:00,48.0,42.9,30.24,SSW,193,0.0,2.0,82,0.00,,OVC OVC///CB,0.09,WUHU216DAVISVP2,2013-11-22 03:53:00,
2013-11-21 22:58:00,48.1,42.7,30.24,South,191,0.0,2.0,81,0.00,,OVC OVC///CB,0.09,WUHU216DAVISVP2,2013-11-22 03:58:00,
2013-11-21 23:03:00,48.3,42.6,30.23,South,191,1.0,2.0,80,0.00,,OVC OVC///CB,0.09,WUHU216DAVISVP2,2013-11-22 04:03:00,
2013-11-21 23:08:00,48.5,42.8,30.23,SSW,208,0.0,2.0,80,0.00,,OVC OVC///CB,0.09,WUHU216DAVISVP2,2013-11-22 04:08:00,
2013-11-21 23:13:00,48.5,42.8,30.23,SSW,196,2.0,2.0,80,0.00,,OVC OVC///CB,0.09,WUHU216DAVISVP2,2013-11-22 04:13:00,
2013-11-21 23:18:00,48.7,43.0,30.23,South,176,0.0,2.0,80,0.00,,OVC OVC///CB,0.09,WUHU216DAVISVP2,2013-11-22 04:18:00,
2013-11-21 23:23:00,48.8,42.7,30.22,SSW,203,1.0,3.0,79,0.00,,OVC OVC///CB,0.09,WUHU216DAVISVP2,2013-11-22 04:23:00,
2013-11-21 23:28:00,49.0,42.9,30.22,SSW,195,2.0,4.0,79,0.00,,OVC OVC///CB,0.09,WUHU216DAVISVP2,2013-11-22 04:28:00,
2013-11-21 23:33:00,49.2,43.1,30.22,SSW,195,2.0,5.0,79,0.00,,OVC OVC///CB,0.09,WUHU216DAVISVP2,2013-11-22 04:33:00,
2013-11-21 23:38:00,49.3,42.9,30.22,SSW,198,1.0,6.0,78,0.00,,OVC OVC///CB,0.09,WUHU216DAVISVP2,2013-11-22 04:38:00,
2013-11-21 23:43:00,49.4,43.0,30.22,SSW,198,3.0,6.0,78,0.00,,OVC OVC///CB,0.09,WUHU216DAVISVP2,2013-11-22 04:43:00,
2013-11-21 23:48:00,49.5,43.1,30.22,SSW,198,1.0,6.0,78,0.00,,OVC OVC///CB,0.09,WUHU216DAVISVP2,2013-11-22 04:48:00,
2013-11-21 23:53:00,49.5,43.1,30.22,SSW,197,2.0,6.0,78,0.00,,OVC OVC///CB,0.09,WUHU216DAVISVP2,2013-11-22 04:53:00,
2013-11-21 23:58:00,49.6,43.2,30.21,SSW,197,1.0,5.0,78,0.00,,OVC OVC///CB,0.09,WUHU216DAVISVP2,2013-11-22 04:58:00,